Back to catalog

SL-16 DEB

AliveSSO
NORAD 25863·DEBRIS·🇷🇺 Russia

Launched Jul 17, 1999 from Baikonur Cosmodrome

Loading…

Next Passes (next 24 hours)

TLE

FreshSource: Space-Track

Epoch: Sep 14, 2026, 03:14 UTC

1 25863U 99039D   26257.13516507  .00000331  00000-0  92690-4 0  9991
2 25863  98.3571 326.6892 0145832 291.9356  96.2056 14.46865621427962

Track SL-16 DEB in real time with AllMySat

Download on the App Store